Regional Weather Roundup
Issued by NWS

Home | Current Version | Previous Version | Graphics & Text | Print | Product List | Glossary On
Versions: 1 2 3 4 5 6 7 8 9 10 11 12 13 14 15 16 17 18 19 20 21 22 23 24 25 26 27 28 29 30 31 32 33 34 35 36 37 38 39 40 41 42 43 44 45 46 47 48 49 50
000
ASUS43 KTOP 230259
RWRKS

WEATHER ROUNDUP FOR KANSAS
NATIONAL WEATHER SERVICE GOODLAND KS
1000 PM CDT SAT APR 22 2017

NOTE:  "FAIR" INDICATES FEW OR NO CLOUDS BELOW 12,000 FEET WITH NO
SIGNIFICANT WEATHER AND/OR OBSTRUCTIONS TO VISIBILITY.

KSZ001>006-013>018-027>032-041>047-230400-
NORTHWEST KANSAS

CITY           SKY/WX    TMP DP  RH WIND       PRES   REMARKS
GOODLAND       CLEAR     43  36  76 S8        30.24S
HAYS           CLEAR     48  34  58 NW3       30.24R
HILL CITY      CLEAR     43  35  73 CALM      30.24R
RUSSELL        CLEAR     49  33  54 NW6       30.21R
$$

KSZ061>065-074>080-084>089-230400-
SOUTHWEST KANSAS

CITY           SKY/WX    TMP DP  RH WIND       PRES   REMARKS
DODGE CITY     CLEAR     45  34  65 CALM      30.25R
ELKHART          N/A     45  31  58 E3          N/A
GARDEN CITY    CLEAR     48  32  53 N3        30.26R
GREAT BEND     CLEAR     47  37  68 NW5       30.23R
LIBERAL        CLEAR     45  28  53 N5        30.27R
$$

KSZ066>073-081>083-090>101-230400-
SOUTHEAST KANSAS

CITY           SKY/WX    TMP DP  RH WIND       PRES   REMARKS
CHANUTE        CLOUDY    52  38  58 N6        30.14R
COFFEYVILLE    CLOUDY    50  45  83 S3        30.15R
HUTCHINSON     CLEAR     51  38  60 N7        30.20R
MEDICINE LODGE   N/A     46  37  71 N5        30.21R
NEWTON         CLEAR     47  40  76 N9        30.19R
PARSONS        CLOUDY    50  46  86 CALM      30.15R
WICHITA INTL   CLEAR     50  40  68 N7        30.18R
WICHITA JABRA  CLEAR     49  39  68 N9        30.18R
WINFIELD       CLOUDY    50  44  80 N6        30.17R
$$

KSZ007>012-019>026-033>040-048>060-102>105-230400-
NORTHEAST KANSAS

CITY           SKY/WX    TMP DP  RH WIND       PRES   REMARKS
CONCORDIA      CLEAR     53  31  42 CALM      30.21R
EMPORIA        CLEAR     50  35  56 N8        30.17R
LAWRENCE       CLEAR     54  33  45 N8        30.17R
MANHATTAN      CLEAR     47  36  65 CALM      30.19R
OLATHE IND     CLEAR     46  33  60 N9        30.17R
OLATHE EXE     CLEAR     54  30  40 N6        30.16R
SALINA         CLEAR     53  38  56 NW3       30.21R
TOPEKA BILLARD PTCLDY    53  37  54 CALM      30.18R
TOPEKA FORBES  PTCLDY    55  33  43 N5        30.17R
$$




USA.gov is the U.S. government's official web portal to all federal, state and local government web resources and services.